Regional Weather Roundup
Issued by NWS Wakefield, VA

Home | Current Version | Previous Version | Graphics & Text | Print | Product List | Glossary On
Versions: 1 2 3 4 5 6 7 8 9 10 11 12 13 14 15 16 17 18 19 20 21 22 23 24 25 26 27
000
ASUS41 KAKQ 161110
RWRAKQ

REGIONAL WEATHER ROUNDUP
NATIONAL WEATHER SERVICE WAKEFIELD VA
700 AM EDT WED APR 16 2014

Note: "fair" indicates few or no clouds below 12,000 feet with no
significant weather and/or obstructions to visibility. * = Denotes
station may not report precipitation (e.g., rain,snow,etc.),
thunder or fog.

VAZ042-051-052>054-056-161200-
NORTHERN VIRGINIA

CITY           SKY/WX    TMP DP  RH WIND       PRES   REMARKS
WASH NATIONAL  CLEAR     34  14  43 NW17      30.31R WCI  23
DULLES         CLEAR     30  14  51 N14G21    30.31R WCI  19
FORT BELVOIR   CLEAR     33  13  44 NW13G23   30.32R WCI  24
QUANTICO       CLEAR     33  16  49 N14G23    30.33R WCI  23
FREDERICKSBRG* CLEAR     34  19  55 N7G18     30.31R
STAFFORD*      CLEAR     32  20  60 N9        30.36R
WARRENTON      CLEAR     32  23  68 N9        30.31R
CULPEPER*      CLEAR     34  16  47 NW10G16   30.32R
MANASSAS*      CLEAR     32  19  59 N12G20    30.32R WCI  23
LEESBURG*      CLEAR     32  19  59 N9G16     30.33R
WINCHESTER     CLEAR     30  18  59 NW9       30.32R
$$

VAZ048-049-060>072-079>083-161200-
CENTRAL AND SOUTH CENTRAL VIRGINIA...AND NORTH CENTRAL NORTH CAROLINA

CITY           SKY/WX    TMP DP  RH WIND       PRES   REMARKS
RICHMOND       CLEAR     33  17  51 N12       30.29R WCI  24
CHESTERFIELD*  FAIR      34  10  37 N8        30.30R
HANOVER        CLEAR     32  17  54 VRB3      30.32R
TAPPAHANNOCK*  CLEAR     33  17  50 NW8       30.29R
CHARLOTTSVILLE CLEAR     31  16  54 N8        30.29R
ORANGE*        CLEAR     32  19  59 NW6       30.32R
LOUISA*        CLEAR     30  18  59 CALM      30.29R
FARMVILLE*     CLEAR     32  18  55 CALM      30.29R
SOUTH HILL*    CLEAR     34  21  60 N6        30.34R
ROANOKE RAPIDS SUNNY     34  28  80 N13       30.28R WCI  25
RALEIGH        PTCLDY    33  21  61 VRB5      30.28R
$$

VAZ088>098-161200-
SOUTHEAST VIRGINIA

CITY           SKY/WX    TMP DP  RH WIND       PRES   REMARKS
NORFOLK        PTCLDY    37  23  56 MISG      30.24R
VIRGINIA BEACH MOCLDY    38  24  57 N21G31    30.23R
NORFOLK NAVAL  PTCLDY    37  21  52 N20G30    30.27R
WEST POINT*    CLEAR     35  20  53 N7        30.30R
NEWPORT NEWS   CLEAR     37  21  52 N14       30.26R
LANGLEY AFB    CLEAR     35  18  50 N18G29    30.26R WCI  24
FORT EUSTIS    CLEAR     35  24  64 N15       30.25R
WILLIAMSBURG*  CLEAR     34  25  69 N8G16     30.28R
FRANKLIN*      CLEAR     34  25  69 N6        30.28R
WAKEFIELD      CLEAR     33  20  58 N8        30.28R
$$

VAZ020-022-025-037-045-161200-
WESTERN AND SOUTHWEST VIRGINIA

CITY           SKY/WX    TMP DP  RH WIND       PRES   REMARKS
STAUNTON*      CLEAR     28  15  59 N5        30.31R
HOT SPRINGS VA PTCLDY    16  10  79 NW10      30.19R WCI   3
LYNCHBURG      CLEAR     34  16  47 CALM      30.30R
DANVILLE       CLEAR     32  19  58 N12       30.30R WCI  23
MARTINSVILLE   CLEAR     28  25  87 CALM      30.32R
ROANOKE        PTCLDY    28  16  60 NW10      30.31R WCI  19
BLACKSBURG     CLEAR     25  18  74 NW8       30.27R
DUBLIN*        CLEAR     26  15  65 N6        30.27R
MARION*        PTCLDY    24  15  69 NW5       30.26R
HILLSVILLE*    CLEAR     23  12  63 NW14      30.23R WCI  11
RICHLANDS*     SUNNY     24  20  85 N3        30.25R
WISE*          CLEAR     25  18  74 N5        30.27R
ABINGDON*      CLEAR     27  18  69 CALM      30.27R
$$

MDZ021>025-VAZ099-100-161200-
SOUTHERN MARYLAND AND THE DELMARVA PENINSULA

CITY           SKY/WX    TMP DP  RH WIND       PRES   REMARKS
PATUXENT RIVER PTCLDY    33  16  49 NW21G29   30.29R WCI  21
BAY BRIDGE APT CLEAR     34  14  44 N18G26    30.29R WCI  23
LEONARDTOWN    CLEAR     32  18  55 N6        30.30R
DOVER          CLEAR     31  19  62 NW13      30.25R WCI  21
GEORGETOWN     CLEAR     34  19  54 N12       30.25R
EASTON         CLEAR     36  21  55 N10G20    30.30R
CAMBRIDGE      CLEAR     36  21  55 N14G24    30.27R
SALISBURY      CLEAR     35  19  52 N14       30.25R
OCEAN CITY     CLEAR     34  24  67 N13G24    30.23R WCI  25
WALLOPS ISLAND CLEAR     35  21  56 N10G18    30.25R
ACCOMACK*      PTCLDY    39  25  56 N14G23    30.24R
$$

NCZ012>017-030>032-161200-
EASTERN NORTH CAROLINA

CITY           SKY/WX    TMP DP  RH WIND       PRES   REMARKS
ELIZABETH CITY CLEAR     37  26  64 NW17      30.23R
AHOSKIE*       CLEAR     33  25  72 N7        30.28R
EDENTON*       CLEAR     35  28  75 N12G18    30.25R
CURRITUCK*     NOT AVBL
KILL DEVIL HLS CLOUDY    40  30  67 N14G28    30.17R
MANTEO         CLOUDY    40  30  66 N22G39    30.18R
CAPE HATTERAS  CLOUDY    44  35  70 N16G35    30.14R
GOLDSBORO      CLEAR     37  25  62 N12G20    30.25R
WASHINGTON     CLEAR     38  28  68 N16G23    30.24R
GREENVILLE     PTCLDY    36  30  80 N8        30.27R
NEW BERN       CLEAR     38  27  64 N14       30.24R
WILMINGTON     CLEAR     40  32  73 N10       30.22R
$$

VAZ048-161200-
ELSEWHERE

CITY           SKY/WX    TMP DP  RH WIND       PRES   REMARKS
HARRISBURG PA  CLEAR     30  10  43 NW15      30.30R WCI  19
BALTIMORE      PTCLDY    31  14  49 NW10G16   30.28R WCI  22
ANNAPOLIS      CLEAR     35  22  58 NW15      30.29R
ANDREWS AFB    CLEAR     31  15  49 NW15      30.29R WCI  21
WILMINGTON DE  CLEAR     31  12  45 N14G28    30.27R WCI  21
PHILADELPHIA   PTCLDY    31  12  45 N12       30.27R WCI  22
WILDWOOD NJ*   CLEAR     32  16  51 N15G24    30.24R WCI  22
ATLANTIC CITY  CLEAR     30  19  63 NW12      30.23R WCI  20
HENDERSON NC   CLEAR     32  23  69 N8        30.28R
GREENSBORO     PTCLDY    31  20  63 NE8       30.27R
ROCKY MOUNT      N/A    N/A N/A N/A MISG      30.28R
FAYETTEVILLE   CLEAR     36  25  64 N14       30.25R
CHARLOTTE      CLEAR     32  23  69 N7        30.28R
$$

VAZ100-161200-
MARINE

STATION/POSITION TIME  TEMP    WIND        PRES    WAVE   SWELL
                       AIR SEA DIR/SP/G            HT/PER HT/PER
                 (UTC) (F)     (DEG/KT/KT) (MB)    (FT/S) (FT/S)
44066 TX TWR #4  1100   38 45  330/ 25/ 31 1019.0R  12/ 8
CAPE MAY NJ      1100   35 54  360/ 12/ 22 1023.6R
LEWES DE         1100   36 46  360/ 28/ 34 1023.5R
15NM E FENWICK I 1100   37 44              1022.4R   8/ 6
OCEAN-CITY-INLET 1100   36 48   10/ 17/ 22 1023.1R
WACHAPREAGUE VA  1100   36 55  360/  7/ 13 1023.3R
THOMAS POINT MD  1100   34 50  330/ 18/ 20 1026.0R
GOOSES REEF MD   1100   36     360/ 23/ 29 1025.5R
COVE POINT MD    1100   35      10/ 20/ 28 1024.8R
SOLOMONS ISLAND  1100      53                N/A
BISHOPS HEAD MD  1100   34 45  340/ 10/ 15 1024.6R
PINEY POINT MD   1100           10/ 13/ 15   N/A
POTOMAC MD       1100   35     350/ 17/ 21 1024.6R
CAMBRIDGE MD     1100   36 54  360/ 21/ 24 1024.3R
LEWISETTA VA     1100   35 52  350/ 14/ 22 1025.4R
RAPPAHANNOCK LGT 1100          340/ 31/ 35 1023.8R
STINGRAY PT      1100   37     360/ 23/ 29 1023.9R
YORK RVR RNG VA  1100   37      10/ 27/ 34 1023.1R
YORKTOWN VA      1100   36 56  350/ 15/ 18 1024.4R
JAMESTOWN VA     1100          360/ 12/ 17   N/A
DOMINION TERM VA 1100   36      60/  2/  7 1024.2R
KIPTOPEKE VA     1100      55  360/ 17/ 24   N/A
CHES BAY BRIDGE  1100      51  340/ 23/ 28 1023.7R
CAPE HENRY VA    1100          350/ 31/ 36   N/A
CHESAPEAKE LGHT  1000   40     350/ 33/ 36 1021.4R
WILLOUBY STN VA  1100   37     360/ 20/ 26 1023.2R
S CRANEY ISL VA  1100          330/ 19/ 25 1023.9R
CAPE HENRY BUOY  1100      47                N/A     8/ 6   2/11
1ST LANDING BUOY 1100      46                N/A     6/ 6   3/ 7
64NM E OF VA BCH 1100   43 55  360/ 29/ 37 1020.1R  12/ 8
DUCK PIER NC     1100      48   10/ 27/ 38 1020.3R
44056 DUCK FRF   1100      47                N/A     9/ 7   2/11
OREGON INLET NC  1100      63  360/ 25/ 32 1020.7R
HATTERAS NC      1100   47 61  360/ 26/ 35 1020.1R
CAPE LOOKOUT NC  1100   42     350/ 25/ 30 1021.6R
FRYING PAN SHLS  1100   48 66   20/ 29/ 37 1020.2R   9/ 7
$$



USA.gov is the U.S. government's official web portal to all federal, state and local government web resources and services.